Location: Newark
(13.8625°N, 100.5144°E)
Time: 15:16:41
(UTC+00:00)

LightSail 2 - Pass Details

Date: 17 May 2021
Orbit: 685 x 700 km, 24.0° (Epoch: 11 June)

Event Time Altitude Azimuth Distance (km) Brightness Sun altitude
Exits shadow 20:30:30 41° 74° (ENE) 994 6.2 -31.3°
Drops below altitude 10° 20:33:58 10° 97° (E) 2,131 8.2 -30.6°
Sets 20:36:25 0° 101° (ESE) 3,045 9.0 -30.1°
